Hourly Weather Bolshie Nevadicy

Today, 17 June, Thursday

Time Temperature Precipitation Wind Pressure Humidity
00:00 +13°C° 0 mm 1 mps 762 mmHg 69%
01:00 +12°C° 0 mm 1 mps 762 mmHg 72%
02:00 +12°C° 0 mm 1 mps 762 mmHg 73%
03:00 +12°C° 0 mm 1 mps 762 mmHg 75%
04:00 +13°C° 0 mm 1 mps 762 mmHg 76%
05:00 +13°C° 0 mm 1 mps 763 mmHg 77%
06:00 +16°C° 0 mm 1 mps 763 mmHg 70%
07:00 +19°C° 0 mm 1 mps 763 mmHg 63%
08:00 +21°C° 0 mm 1 mps 763 mmHg 55%
09:00 +22°C° 0 mm 1 mps 763 mmHg 51%
10:00 +23°C° 0 mm 1 mps 764 mmHg 47%
11:00 +25°C° 0 mm 2 mps 764 mmHg 42%
12:00 +25°C° 0 mm 2 mps 764 mmHg 41%
13:00 +26°C° 0 mm 2 mps 764 mmHg 39%
14:00 +27°C° 0 mm 2 mps 763 mmHg 38%
15:00 +26°C° 0 mm 2 mps 763 mmHg 40%
16:00 +26°C° 0 mm 2 mps 763 mmHg 42%
17:00 +26°C° 0 mm 2 mps 763 mmHg 44%
18:00 +24°C° 0 mm 2 mps 763 mmHg 52%
19:00 +23°C° 0 mm 1 mps 763 mmHg 60%
20:00 +21°C° 0 mm 1 mps 763 mmHg 68%
21:00 +20°C° 0 mm 1 mps 764 mmHg 68%
22:00 +19°C° 0 mm 1 mps 764 mmHg 69%
23:00 +17°C° 0 mm 2 mps 764 mmHg 69%

Tomorrow, 18 June, Friday

Time Temperature Precipitation Wind Pressure Humidity
00:00 +16°C° 0 mm 2 mps 764 mmHg 72%
01:00 +16°C° 0 mm 2 mps 764 mmHg 74%
02:00 +15°C° 0 mm 2 mps 764 mmHg 77%
03:00 +15°C° 0 mm 2 mps 764 mmHg 78%
04:00 +15°C° 0 mm 1 mps 764 mmHg 79%
05:00 +16°C° 0 mm 1 mps 764 mmHg 80%
06:00 +18°C° 0 mm 2 mps 764 mmHg 73%
07:00 +20°C° 0 mm 2 mps 764 mmHg 65%
08:00 +22°C° 0 mm 3 mps 764 mmHg 58%
09:00 +24°C° 0 mm 3 mps 764 mmHg 54%
10:00 +26°C° 0 mm 3 mps 764 mmHg 49%
11:00 +27°C° 0 mm 3 mps 763 mmHg 45%
12:00 +28°C° 0 mm 3 mps 763 mmHg 44%
13:00 +29°C° 0 mm 4 mps 763 mmHg 42%
14:00 +29°C° 0 mm 4 mps 763 mmHg 40%
15:00 +29°C° 0 mm 3 mps 762 mmHg 42%
16:00 +29°C° 0 mm 3 mps 762 mmHg 44%
17:00 +29°C° 0 mm 3 mps 762 mmHg 47%
18:00 +27°C° 0 mm 3 mps 762 mmHg 55%
19:00 +25°C° 0 mm 2 mps 762 mmHg 64%
20:00 +23°C° 0 mm 2 mps 762 mmHg 73%
21:00 +21°C° 0 mm 2 mps 762 mmHg 76%
22:00 +20°C° 0 mm 2 mps 762 mmHg 79%
23:00 +18°C° 0 mm 2 mps 762 mmHg 82%

Day after tomorrow, 19 June, Saturday

Time Temperature Precipitation Wind Pressure Humidity
00:00 +18°C° 0 mm 2 mps 762 mmHg 85%
01:00 +17°C° 0 mm 2 mps 762 mmHg 88%
02:00 +17°C° 0 mm 2 mps 762 mmHg 91%
03:00 +17°C° 0 mm 2 mps 763 mmHg 89%
04:00 +17°C° 0 mm 2 mps 763 mmHg 88%
05:00 +18°C° 0 mm 2 mps 763 mmHg 87%
06:00 +20°C° 0 mm 2 mps 763 mmHg 79%
07:00 +23°C° 0 mm 2 mps 763 mmHg 70%
08:00 +25°C° 0 mm 3 mps 763 mmHg 62%
09:00 +26°C° 0 mm 3 mps 762 mmHg 57%
10:00 +27°C° 0 mm 3 mps 762 mmHg 51%
11:00 +28°C° 0 mm 3 mps 762 mmHg 46%
12:00 +29°C° 0 mm 3 mps 762 mmHg 45%
13:00 +30°C° 0 mm 3 mps 762 mmHg 43%
14:00 +30°C° 0 mm 3 mps 761 mmHg 42%
15:00 +30°C° 0 mm 3 mps 761 mmHg 43%
16:00 +30°C° 0 mm 3 mps 761 mmHg 45%
17:00 +30°C° 0 mm 3 mps 760 mmHg 47%
18:00 +28°C° 0 mm 3 mps 760 mmHg 55%
19:00 +26°C° 0 mm 2 mps 760 mmHg 64%
20:00 +25°C° 0 mm 2 mps 760 mmHg 72%
21:00 +23°C° 0 mm 2 mps 760 mmHg 75%
22:00 +21°C° 0 mm 2 mps 760 mmHg 78%
23:00 +20°C° 0 mm 2 mps 761 mmHg 81%

20 June, Sunday

Time Temperature Precipitation Wind Pressure Humidity
00:00 +20°C° 0 mm 2 mps 761 mmHg 84%
01:00 +19°C° 0 mm 2 mps 761 mmHg 87%
02:00 +18°C° 0 mm 2 mps 761 mmHg 89%
03:00 +19°C° 0 mm 2 mps 761 mmHg 89%
04:00 +19°C° 0 mm 2 mps 761 mmHg 88%
05:00 +19°C° 0 mm 2 mps 761 mmHg 87%
06:00 +21°C° 0 mm 2 mps 761 mmHg 80%
07:00 +24°C° 0 mm 3 mps 760 mmHg 73%
08:00 +26°C° 0 mm 3 mps 760 mmHg 66%
09:00 +27°C° 0 mm 3 mps 760 mmHg 60%
10:00 +28°C° 0 mm 3 mps 760 mmHg 54%
11:00 +30°C° 0 mm 4 mps 760 mmHg 47%
12:00 +30°C° 0 mm 4 mps 760 mmHg 45%
13:00 +32°C° 0 mm 4 mps 760 mmHg 43%
14:00 +32°C° 0 mm 4 mps 759 mmHg 41%
15:00 +31°C° 0 mm 3 mps 759 mmHg 42%
16:00 +31°C° 0 mm 3 mps 759 mmHg 43%
17:00 +31°C° 0 mm 3 mps 759 mmHg 44%
18:00 +29°C° 0 mm 2 mps 759 mmHg 52%
19:00 +27°C° 0 mm 2 mps 759 mmHg 61%
20:00 +25°C° 0 mm 1 mps 759 mmHg 70%
21:00 +24°C° 0 mm 1 mps 759 mmHg 72%
22:00 +23°C° 0 mm 2 mps 759 mmHg 74%
23:00 +21°C° 0 mm 2 mps 759 mmHg 76%

21 June, Monday

Time Temperature Precipitation Wind Pressure Humidity
00:00 +21°C° 0 mm 2 mps 759 mmHg 80%
01:00 +20°C° 0 mm 2 mps 759 mmHg 85%
02:00 +20°C° 0 mm 2 mps 760 mmHg 90%
03:00 +21°C° 0 mm 1 mps 760 mmHg 90%
04:00 +21°C° 0 mm 1 mps 760 mmHg 90%
05:00 +22°C° 0 mm 1 mps 760 mmHg 89%
06:00 +24°C° 0 mm 1 mps 760 mmHg 82%
07:00 +25°C° 0 mm 2 mps 760 mmHg 75%
08:00 +27°C° 0 mm 2 mps 760 mmHg 67%
09:00 +28°C° 0 mm 2 mps 759 mmHg 62%
10:00 +30°C° 0 mm 2 mps 759 mmHg 56%
11:00 +31°C° 0 mm 3 mps 759 mmHg 50%
12:00 +33°C° 0 mm 3 mps 759 mmHg 47%
13:00 +33°C° 0 mm 3 mps 759 mmHg 44%
14:00 +34°C° 0 mm 3 mps 758 mmHg 41%
15:00 +34°C° 0 mm 3 mps 758 mmHg 42%
16:00 +34°C° 0 mm 3 mps 758 mmHg 44%
17:00 +32°C° 0 mm 2 mps 758 mmHg 45%
18:00 +30°C° 0 mm 2 mps 758 mmHg 54%
19:00 +28°C° 0 mm 2 mps 758 mmHg 63%
20:00 +27°C° 0 mm 2 mps 758 mmHg 72%
21:00 +26°C° 0 mm 2 mps 758 mmHg 73%
22:00 +25°C° 0 mm 2 mps 758 mmHg 74%
23:00 +24°C° 0 mm 2 mps 758 mmHg 76%

22 June, Tuesday

Time Temperature Precipitation Wind Pressure Humidity
00:00 +23°C° 0.1 mm 2 mps 758 mmHg 79%
01:00 +21°C° 0.1 mm 2 mps 759 mmHg 82%
02:00 +20°C° 0.1 mm 2 mps 759 mmHg 85%
03:00 +21°C° 0 mm 2 mps 759 mmHg 85%
04:00 +21°C° 0 mm 2 mps 759 mmHg 85%
05:00 +21°C° 0 mm 2 mps 758 mmHg 86%
06:00 +24°C° 0 mm 2 mps 758 mmHg 77%
07:00 +26°C° 0 mm 3 mps 758 mmHg 68%
08:00 +28°C° 0 mm 3 mps 758 mmHg 59%
09:00 +29°C° 0 mm 4 mps 758 mmHg 53%
10:00 +32°C° 0 mm 4 mps 758 mmHg 48%
11:00 +33°C° 0 mm 4 mps 758 mmHg 43%
12:00 +34°C° 0 mm 4 mps 758 mmHg 40%
13:00 +34°C° 0 mm 5 mps 757 mmHg 38%
14:00 +35°C° 0 mm 5 mps 757 mmHg 35%
15:00 +35°C° 0 mm 4 mps 757 mmHg 37%
16:00 +34°C° 0 mm 4 mps 757 mmHg 39%
17:00 +34°C° 0 mm 4 mps 757 mmHg 40%
18:00 +32°C° 0 mm 4 mps 757 mmHg 48%
19:00 +29°C° 0 mm 3 mps 757 mmHg 56%
20:00 +27°C° 0 mm 3 mps 757 mmHg 64%
21:00 +26°C° 0 mm 3 mps 757 mmHg 67%
22:00 +25°C° 0 mm 2 mps 757 mmHg 70%
23:00 +25°C° 0 mm 2 mps 757 mmHg 73%
Show more